Vertical_Velocity
-2 -2 -3 -4 -4 -4 -3 -3 -3 -2 -2 -1 -2 -3 -2 -2 -2 -2 -2 -2 -4 -5 -5 -4 -4 -4 -4 -4 -4 -4 -3 -3 -3 -4 -4 -5 -4 -3 -2 -1 -1 -1 -1 -1 -1 -0 -0 -1 -1 -1 -1 -2 -1 -2 -2 -2 -2 -2 -1 0 0 -0 0 1 3 3 3 2 2
-3 -2 -1 -1 -1 -1 -1 -2 -3 -4 -4 -3 -2 -2 -2 -2 -2 -2 -3 -5 -4 -4 -3 -3 -4 -4 -4 -4 -3 -4 -4 -3 -3 -3 -4 -4 -4 -4 -3 -2 -1 -1 -1 -1 -1 -1 -0 -1 -1 -1 -1 -2 -1 -1 -2 -2 -2 -2 -1 0 1 0 0 0 2 3 4 3 2
-4 -4 -4 -3 -3 -3 -4 -4 -4 -3 -3 -3 -3 -3 -3 -3 -2 -2 -2 -2 -1 -2 -3 -4 -4 -4 -3 -3 -3 -3 -3 -4 -3 -3 -4 -4 -4 -4 -3 -2 -1 -1 -0 -0 -0 -1 -1 -1 -1 -1 -1 -2 -2 -2 -2 -2 -2 -2 -1 -0 1 1 0 -0 1 2 3 4 3
-2 -3 -4 -6 -6 -5 -5 -5 -5 -4 -3 -2 -3 -2 -2 -2 -1 -0 1 2 -1 -4 -6 -5 -5 -5 -4 -4 -3 -4 -4 -4 -4 -3 -3 -3 -4 -4 -3 -3 -2 -1 -0 0 -0 -0 -0 -0 -0 -1 -1 -1 -1 -2 -2 -2 -2 -2 -2 -1 0 1 1 -0 -0 1 2 3 3
-1 -0 -0 -1 -2 -3 -4 -4 -5 -6 -6 -4 -3 -2 -2 -1 -1 -1 -2 -4 -5 -5 -4 -4 -4 -4 -3 -2 -2 -2 -3 -4 -4 -4 -3 -3 -3 -3 -3 -3 -2 -1 -0 -0 0 0 0 0 -0 -0 -0 -1 -1 -2 -2 -2 -2 -2 -2 -2 -1 0 1 0 -0 -0 1 2 3
-3 -3 -3 -2 -2 -2 -3 -2 -2 -2 -3 -3 -2 -2 -2 -2 -2 -4 -5 -6 -3 -1 -1 -3 -3 -3 -3 -2 -2 -2 -2 -2 -3 -3 -3 -3 -3 -3 -3 -3 -2 -2 -1 -1 -0 0 0 1 0 0 0 -0 -1 -1 -1 -1 -1 -2 -2 -2 -1 -1 0 0 0 -0 -0 0 1
-3 -4 -5 -6 -5 -4 -4 -3 -1 -0 -0 -1 -2 -2 -3 -3 -3 -3 -1 1 -0 -2 -4 -4 -4 -4 -4 -4 -3 -2 -2 -2 -2 -2 -2 -3 -3 -3 -3 -3 -2 -2 -2 -1 -1 -0 0 1 1 1 1 1 0 -0 -1 -1 -1 -2 -2 -2 -2 -2 -1 -0 0 0 0 -0 -0
-1 -2 -2 -3 -4 -3 -3 -3 -4 -3 -3 -2 -2 -3 -3 -4 -4 -2 -1 -1 -4 -4 -4 -3 -3 -3 -3 -3 -3 -3 -2 -1 -1 -1 -1 -2 -2 -2 -2 -2 -2 -2 -1 -1 -1 -1 -0 -0 0 1 1 1 0 0 -0 -0 -1 -1 -2 -2 -2 -2 -2 -1 -1 -0 0 0 -0
-3 -3 -2 -2 -2 -2 -2 -2 -2 -2 -3 -3 -2 -2 -2 -2 -2 -3 -4 -5 -4 -2 -2 -2 -2 -2 -2 -3 -3 -2 -2 -2 -1 -1 -1 -1 -1 -2 -2 -2 -2 -1 -1 -1 -1 -1 -1 -1 -0 -0 0 1 0 0 0 0 -0 -1 -1 -1 -2 -2 -2 -2 -1 -1 -0 0 0
-2 -3 -4 -5 -4 -3 -3 -2 -1 -1 -1 -2 -2 -2 -2 -2 -2 -3 -3 -2 -1 -2 -3 -3 -3 -3 -3 -3 -3 -3 -2 -2 -2 -1 -1 -1 -1 -1 -2 -2 -2 -2 -2 -1 -1 -1 -1 -1 -1 -1 -0 0 0 0 0 0 0 -0 -1 -1 -1 -2 -2 -2 -2 -1 -1 -0 0
-1 -2 -3 -3 -4 -3 -3 -3 -3 -2 -2 -2 -2 -2 -2 -2 -3 -3 -2 -0 -1 -2 -3 -3 -3 -3 -3 -2 -2 -2 -2 -2 -2 -2 -2 -1 -1 -1 -1 -1 -2 -2 -2 -2 -2 -1 -1 -1 -1 -1 -1 -0 0 0 1 1 1 0 -0 -1 -1 -1 -2 -2 -2 -2 -1 -1 -1
-2 -2 -2 -2 -2 -2 -2 -3 -3 -3 -2 -2 -2 -2 -2 -3 -2 -2 -2 -3 -2 -1 -1 -3 -3 -3 -2 -2 -2 -2 -2 -3 -3 -3 -3 -2 -2 -1 -1 -1 -1 -2 -3 -4 -3 -2 -2 -1 -1 -1 -1 -1 -0 0 0 1 1 1 0 -0 -0 -1 -1 -2 -2 -2 -2 -2 -1
-2 -2 -2 -3 -2 -2 -2 -2 -2 -2 -2 -2 -2 -2 -3 -3 -2 -2 -3 -4 -2 -2 -1 -2 -2 -2 -2 -2 -2 -2 -3 -3 -3 -3 -3 -3 -3 -2 -1 -1 -1 -1 -2 -3 -4 -4 -3 -2 -2 -1 -1 -1 -1 -1 -0 -0 0 0 0 0 0 -0 -1 -1 -2 -2 -2 -2 -2
-1 -2 -2 -2 -2 -2 -2 -2 -3 -2 -2 -2 -3 -3 -3 -3 -3 -3 -3 -2 -3 -3 -2 -1 -1 -2 -3 -3 -2 -2 -2 -2 -3 -3 -4 -4 -3 -3 -2 -1 -1 -1 -1 -2 -3 -4 -4 -3 -3 -2 -2 -2 -2 -1 -1 -1 -1 -0 -0 0 0 0 -0 -1 -1 -1 -2 -2 -2
-2 -2 -1 -1 -2 -2 -2 -2 -3 -3 -3 -3 -3 -2 -2 -2 -3 -3 -2 -1 -2 -2 -2 -1 -1 -2 -2 -3 -2 -2 -2 -2 -2 -3 -3 -4 -4 -3 -3 -2 -1 -1 -0 -0 -1 -2 -3 -3 -3 -3 -3 -2 -2 -1 -1 -1 -1 -1 -0 -0 -0 0 0 -0 -1 -1 -2 -2 -2
-2 -2 -2 -2 -2 -2 -2 -2 -2 -2 -3 -2 -2 -2 -3 -3 -2 -3 -3 -4 -3 -2 -1 -2 -2 -2 -2 -2 -2 -2 -1 -1 -2 -2 -3 -3 -3 -3 -3 -2 -2 -1 0 1 1 0 -1 -2 -2 -2 -2 -2 -1 -1 -1 -0 -0 -0 -0 -0 -0 -0 -0 -0 -0 -1 -1 -2 -2
-2 -2 -2 -1 -1 -2 -2 -2 -2 -2 -2 -3 -3 -3 -3 -2 -2 -3 -4 -4 -4 -3 -2 -1 -2 -2 -3 -3 -2 -2 -2 -1 -1 -2 -2 -3 -3 -3 -3 -3 -2 -1 -0 1 1 2 1 1 1 0 0 0 0 0 0 0 -0 -0 -0 -0 -0 -0 -0 -0 -0 -0 -1 -2 -2
-2 -1 -1 -1 -1 -2 -2 -2 -2 -2 -3 -3 -3 -2 -2 -2 -3 -3 -3 -2 -3 -3 -3 -3 -2 -2 -3 -4 -4 -4 -3 -2 -2 -2 -2 -2 -2 -2 -2 -3 -2 -2 -1 -0 1 2 3 3 3 2 2 1 1 1 1 1 0 0 -0 -0 -0 -0 -0 -0 -0 -0 -1 -1 -2
-2 -1 -1 -1 -1 -1 -1 -1 -2 -2 -2 -1 -1 -1 -2 -2 -2 -2 -2 -3 -3 -4 -3 -3 -2 -2 -2 -3 -3 -3 -3 -2 -2 -1 -1 -1 -1 -1 -2 -2 -2 -2 -2 -1 0 1 3 4 4 3 2 2 2 2 1 1 0 0 -0 -0 -0 -0 -0 0 0 -0 -0 -1 -1
-2 -1 -1 -0 -0 -1 -1 -2 -2 -1 -1 -2 -2 -2 -2 -2 -2 -2 -3 -4 -4 -4 -3 -3 -3 -2 -2 -2 -2 -3 -4 -3 -2 -2 -1 -1 -1 -2 -2 -2 -2 -2 -2 -2 -1 0 2 4 4 3 2 2 2 2 1 1 1 1 0 0 -0 -0 -0 -0 0 0 -0 -0 -1
-2 -1 -1 -0 -1 -1 -1 -1 -1 -2 -2 -3 -2 -2 -2 -2 -2 -3 -3 -3 -3 -4 -4 -4 -3 -3 -3 -3 -3 -3 -4 -4 -3 -3 -2 -1 -2 -2 -1 -1 -1 -2 -2 -2 -2 -1 1 3 4 3 1 1 1 1 1 1 1 1 1 1 0 -0 -1 -1 -0 -0 -0 -0 -1
-2 -1 -1 -1 -1 -1 -1 -2 -2 -2 -2 -1 -0 -1 -1 -2 -2 -2 -2 -3 -3 -4 -4 -5 -4 -4 -4 -3 -3 -2 -2 -2 -2 -2 -2 -2 -2 -2 -2 -2 -2 -2 -2 -2 -2 -2 -2 1 3 2 0 -1 -0 0 0 1 1 1 1 1 0 -0 -1 -1 -1 -1 -0 -0 -0
-1 -1 -1 -1 -1 -1 -2 -2 -2 -1 -1 -1 -1 -2 -2 -2 -1 -2 -2 -3 -3 -3 -3 -4 -4 -4 -4 -3 -2 -2 -2 -1 -1 -1 -2 -2 -2 -2 -2 -2 -2 -2 -2 -2 -2 -3 -4 -4 -2 -1 -1 -2 -1 0 1 1 1 1 1 1 0 -0 -0 -1 -1 -1 -1 -0 -0
-1 -1 -1 -0 -0 -1 -1 -1 -1 -1 -1 -2 -2 -2 -2 -1 -2 -2 -2 -2 -2 -2 -2 -3 -3 -3 -2 -2 -2 -2 -2 -1 -1 -1 -1 -2 -2 -2 -2 -2 -2 -2 -2 -1 -2 -2 -3 -5 -5 -4 -3 -1 -0 1 1 2 1 1 1 0 0 0 -0 -0 -1 -1 -1 -0 -1
-2 -1 -1 -1 -1 -1 -1 -1 -2 -2 -2 -2 -1 -1 -1 -1 -2 -2 -1 -1 -2 -3 -4 -4 -3 -2 -2 -2 -2 -1 -0 -0 -1 -1 -1 -1 -1 -1 -1 -2 -2 -2 -1 -1 -1 -1 -2 -3 -4 -4 -3 -1 -1 0 1 2 2 1 -0 -0 -0 0 0 -0 -0 -1 -1 -1 -1
-1 -1 -1 -1 -1 -1 -1 -2 -2 -1 -1 -0 -0 -1 -1 -1 -1 -1 -1 -2 -4 -4 -4 -3 -3 -3 -4 -3 -2 -1 -1 -1 -1 -1 -1 -1 -1 -1 -1 -1 -1 -1 -1 -1 -0 -0 0 -0 -1 -2 -3 -3 -1 -0 1 2 0 -1 -1 -0 0 0 0 -0 -0 -0 -1 -1 -1
-1 -1 -1 -1 -1 -1 -1 -1 -0 -0 -0 -0 -1 -1 -1 -1 -2 -2 -3 -3 -2 -0 1 0 -2 -3 -3 -2 -2 -3 -2 -1 -1 -1 -1 -1 -1 -1 -1 -1 -1 -1 -1 -1 -1 -0 0 1 1 -0 -2 -4 -1 -0 0 -1 -2 -2 -1 -0 0 0 0 -0 -0 -0 -0 -0 -1
-2 -1 -1 -1 -1 -1 -0 -0 -0 -0 -1 -1 -1 -1 -1 -1 -2 -3 -2 -0 1 2 1 -0 -1 -1 -1 -1 -3 -3 -3 -2 -1 -1 -1 -1 -1 -1 -1 -1 -1 -1 -1 -1 -1 -1 -0 0 0 0 -1 -2 -0 0 -1 -3 -4 -2 -1 -0 0 1 1 0 0 -0 -0 -0 -0
-1 -1 -1 -1 -1 -1 -1 -1 -1 -1 -1 -1 -1 -1 -1 -0 1 2 2 2 0 -2 -4 -5 -4 -4 -5 -6 -5 -4 -3 -3 -2 -1 -1 -1 -1 -1 -1 -1 -1 -1 -1 -1 -1 -1 -1 -1 -1 -1 -1 -1 0 -1 -2 -4 -3 -2 -1 0 1 2 2 2 1 0 -0 -0 -0
-1 -1 -1 -1 -1 -1 -1 -1 -0 -0 -0 0 -1 -1 -1 -0 1 1 0 -1 -2 -2 -2 -2 -4 -6 -7 -7 -6 -6 -4 -3 -2 -1 -0 -0 -1 -1 -2 -1 -1 -1 -1 -1 -1 -1 -1 -1 -1 -3 -3 -2 -2 -3 -3 -3 -1 -0 1 3 4 4 4 2 1 0 -0 -0 -0
-1 -1 -0 -0 -1 -1 -1 -1 -0 -0 -0 -1 -1 -0 -1 -1 -3 -3 -3 -2 -0 2 3 2 1 1 1 -0 -2 -3 -3 -2 -1 -1 -1 -1 -1 -1 -1 -1 -2 -2 -2 -2 -2 -2 -1 -1 -1 -2 -3 -4 -4 -3 -2 -0 1 2 3 5 5 4 3 1 1 0 0 -0 -0
-1 -1 -1 -1 -1 -1 -1 -1 -1 -1 -1 -1 -1 -1 -0 -0 -0 -0 0 1 2 1 1 1 1 2 1 0 -1 -2 -2 -3 -2 -1 -1 -1 -1 -1 -2 -2 -2 -2 -3 -4 -4 -3 -2 -1 -1 -1 -1 -2 -2 -1 0 2 3 3 4 5 3 2 0 -0 0 0 -0 -0 -0
-1 -1 -0 -1 -1 -1 -1 -1 -1 -1 -1 -1 -2 -2 -2 -1 1 2 3 2 1 0 -1 -1 -1 -2 -3 -3 -3 -3 -2 -2 -1 -0 -1 -1 -2 -2 -2 -2 -3 -3 -4 -4 -4 -4 -3 -1 0 1 1 1 1 1 3 4 4 3 2 1 0 -1 -1 -1 -0 -0 -0 -0 -0
-1 -0 -0 -0 -0 -1 -1 -1 -1 -1 -2 -2 -2 -2 -1 -1 -1 -0 -0 -1 -0 0 1 1 0 0 0 1 0 0 0 1 0 -0 -1 -2 -2 -3 -3 -3 -3 -3 -4 -4 -3 -2 -1 0 1 2 3 3 3 4 5 5 3 1 -0 -2 -1 -1 -0 -0 0 0 -0 -0 -1
-1 -1 -1 -0 0 -0 -1 -1 -2 -2 -2 -2 -2 -0 1 1 0 -1 -1 -1 -0 0 1 2 2 3 4 4 4 3 1 0 0 -0 -1 -2 -3 -3 -3 -3 -3 -3 -2 -2 -1 -0 1 1 2 3 4 4 4 5 5 5 3 1 -1 -2 -2 -0 0 1 0 0 0 -0 -1
-1 -1 -1 -0 0 -0 -1 -1 -2 -3 -3 -3 -2 -2 -1 -2 -1 -0 1 1 2 2 2 1 2 2 2 1 1 0 0 1 1 0 -1 -2 -3 -2 -2 -2 -2 -2 -1 0 1 2 2 2 3 3 3 3 3 3 3 2 1 -0 -2 -2 -1 0 1 1 1 0 0 -0 -1
-1 -1 -1 -0 -0 0 -0 -1 -2 -2 -3 -3 -3 -3 -4 -3 -2 -0 1 1 1 1 1 2 2 2 1 0 -0 -0 1 2 2 0 -1 -2 -2 -2 -1 -1 -1 -0 0 1 2 2 3 3 3 3 2 0 0 -0 -1 -1 -1 -1 -2 -2 -1 1 1 1 1 0 -0 -1 -1
-1 -1 -1 -0 -0 -0 -0 -1 -1 -2 -2 -2 -2 -2 -1 0 -0 -1 -1 -1 -1 -1 -0 0 1 1 1 1 1 1 2 2 1 -1 -2 -3 -2 -1 -1 -1 -0 1 1 2 2 3 3 3 3 2 1 0 -1 -2 -2 -1 -1 -1 -1 -1 -0 1 1 1 1 0 -0 -1 -1
-1 -1 -1 -0 -0 -0 -0 -1 -1 -2 -2 -3 -2 -2 -1 -2 -2 -2 -2 -1 -0 -0 -0 -1 -0 0 1 1 1 1 1 2 0 -2 -3 -4 -2 -1 -1 -1 -0 1 1 2 2 2 2 1 2 2 1 -0 -2 -2 -1 -0 1 1 1 -1 0 1 1 1 0 0 -0 -1 -1
-1 -1 -1 -1 -1 -0 -0 -1 -1 -1 -2 -2 -2 -3 -4 -5 -4 -3 -1 -1 -1 -1 -1 -0 -0 -0 -0 -0 0 1 2 1 -1 -3 -4 -4 -2 -1 -1 -0 -0 0 0 1 1 1 1 0 1 1 0 -2 -4 -3 -1 1 2 2 0 -1 -0 0 1 0 1 0 -0 -1 -1
-1 -1 -1 -1 -1 -1 -1 -1 -0 0 0 0 -1 -2 -2 -2 -2 -2 -2 -2 -2 -2 -2 -2 -2 -2 -2 -2 -1 -0 0 -1 -4 -5 -5 -4 -3 -2 -1 -1 -0 -0 -1 -1 -0 0 -0 -0 1 1 -0 -4 -4 -3 -1 -0 0 -1 -2 -2 -1 -0 1 1 1 1 0 -1 -1
Height
5596 5590 5584 5578 5572 5566 5559 5553 5547 5541 5535 5529 5524 5518 5513 5507 5501 5495 5489 5484 5479 5474 5468 5463 5458 5452 5447 5441 5436 5430 5425 5419 5414 5408 5402 5396 5391 5385 5380 5375 5370 5366 5361 5358 5354 5351 5348 5346 5343 5341 5338 5336 5334 5332 5329 5327 5325 5323 5322 5320 5318 5316 5313 5312 5310 5308 5307 5305 5304
5594 5588 5582 5576 5569 5563 5557 5551 5545 5539 5533 5528 5522 5517 5511 5506 5500 5494 5489 5483 5478 5473 5467 5462 5456 5451 5445 5440 5435 5429 5424 5419 5413 5408 5402 5396 5390 5385 5379 5374 5370 5365 5361 5357 5353 5351 5348 5345 5342 5340 5338 5335 5333 5331 5329 5327 5325 5323 5322 5320 5318 5317 5314 5313 5311 5309 5308 5306 5305
5592 5586 5580 5574 5568 5562 5555 5549 5543 5537 5531 5526 5520 5515 5510 5504 5499 5494 5488 5483 5477 5471 5466 5461 5455 5450 5444 5439 5433 5428 5423 5418 5413 5407 5402 5396 5390 5384 5379 5374 5369 5365 5360 5357 5353 5350 5347 5344 5342 5339 5337 5335 5333 5331 5329 5327 5325 5323 5322 5320 5319 5317 5315 5313 5312 5310 5309 5308 5306
5590 5584 5578 5573 5566 5560 5554 5548 5541 5535 5530 5524 5519 5513 5508 5503 5498 5493 5487 5482 5476 5471 5465 5460 5454 5449 5444 5438 5433 5428 5422 5417 5412 5407 5401 5396 5390 5384 5379 5373 5369 5364 5360 5356 5353 5349 5346 5343 5341 5338 5336 5334 5332 5330 5328 5326 5324 5323 5321 5320 5318 5317 5316 5314 5312 5311 5309 5308 5307
5588 5582 5576 5570 5564 5558 5552 5546 5540 5534 5528 5523 5517 5512 5507 5502 5497 5491 5486 5481 5475 5470 5464 5459 5453 5448 5443 5438 5433 5427 5422 5416 5411 5406 5401 5395 5390 5384 5379 5373 5368 5364 5360 5356 5352 5348 5345 5343 5340 5338 5335 5333 5331 5329 5328 5326 5324 5323 5321 5319 5318 5317 5316 5314 5313 5311 5310 5308 5307
5586 5581 5574 5568 5562 5556 5550 5544 5538 5533 5527 5522 5516 5511 5505 5500 5495 5490 5485 5480 5474 5469 5463 5458 5453 5448 5442 5437 5432 5427 5422 5416 5411 5406 5400 5395 5390 5384 5379 5373 5368 5363 5359 5355 5352 5348 5345 5342 5339 5337 5335 5333 5330 5328 5327 5325 5323 5322 5320 5319 5318 5316 5315 5314 5313 5311 5310 5308 5307
5585 5579 5573 5567 5561 5555 5549 5543 5537 5532 5526 5520 5515 5510 5504 5499 5494 5489 5484 5478 5473 5468 5463 5458 5453 5447 5442 5437 5432 5427 5421 5416 5411 5406 5400 5395 5390 5385 5379 5374 5368 5363 5359 5355 5351 5348 5344 5342 5339 5336 5334 5332 5330 5328 5326 5324 5323 5321 5320 5318 5317 5316 5314 5313 5312 5311 5310 5308 5307
5583 5577 5571 5565 5559 5553 5548 5542 5537 5531 5525 5519 5514 5509 5503 5498 5493 5488 5483 5478 5473 5468 5463 5458 5452 5447 5442 5437 5432 5426 5421 5416 5411 5406 5401 5395 5390 5385 5379 5374 5369 5364 5359 5355 5351 5347 5344 5341 5338 5336 5333 5331 5329 5327 5325 5323 5322 5320 5319 5318 5316 5315 5313 5313 5312 5311 5309 5308 5307
5581 5575 5569 5563 5558 5552 5547 5541 5535 5530 5524 5519 5513 5508 5503 5497 5492 5487 5482 5477 5472 5467 5462 5457 5452 5447 5442 5436 5431 5426 5421 5416 5411 5406 5401 5396 5390 5385 5380 5375 5369 5364 5359 5355 5351 5347 5343 5340 5338 5335 5333 5330 5328 5326 5324 5323 5321 5319 5318 5317 5315 5314 5313 5312 5311 5310 5309 5308 5307
5579 5574 5568 5562 5557 5551 5545 5540 5534 5528 5523 5518 5512 5507 5502 5496 5491 5486 5482 5477 5472 5466 5461 5457 5451 5446 5441 5436 5431 5426 5421 5416 5411 5406 5401 5396 5391 5386 5380 5375 5370 5365 5360 5355 5351 5347 5343 5340 5337 5334 5332 5329 5327 5325 5323 5322 5320 5318 5317 5316 5314 5313 5312 5311 5310 5309 5308 5307 5306
5578 5572 5567 5561 5556 5550 5544 5539 5533 5528 5522 5517 5511 5506 5501 5496 5491 5486 5481 5476 5471 5466 5461 5456 5451 5446 5441 5436 5431 5426 5421 5416 5411 5406 5401 5396 5391 5386 5381 5376 5370 5365 5360 5355 5351 5347 5343 5339 5336 5333 5331 5328 5326 5324 5322 5321 5319 5318 5316 5315 5313 5312 5311 5310 5308 5308 5307 5306 5305
5577 5571 5565 5560 5554 5549 5543 5538 5532 5526 5521 5516 5510 5505 5500 5495 5490 5485 5480 5475 5470 5466 5461 5456 5451 5446 5441 5436 5431 5426 5421 5416 5411 5406 5401 5396 5391 5386 5381 5376 5371 5365 5360 5355 5351 5346 5343 5339 5336 5333 5330 5328 5325 5323 5321 5319 5318 5316 5315 5313 5312 5311 5310 5308 5308 5306 5305 5305 5304
5575 5570 5564 5559 5553 5548 5542 5537 5531 5525 5520 5515 5509 5504 5499 5494 5489 5484 5480 5475 5470 5465 5460 5456 5451 5446 5441 5436 5431 5426 5421 5416 5411 5406 5401 5396 5391 5386 5381 5376 5371 5366 5361 5356 5351 5346 5343 5339 5335 5333 5329 5327 5324 5322 5320 5318 5317 5315 5313 5312 5311 5309 5308 5307 5306 5305 5304 5303 5303
5574 5568 5563 5558 5553 5547 5541 5536 5530 5524 5519 5514 5509 5504 5498 5493 5488 5484 5479 5474 5470 5465 5460 5456 5451 5446 5441 5436 5431 5426 5421 5416 5411 5406 5401 5396 5391 5386 5381 5376 5371 5366 5362 5357 5352 5347 5343 5338 5335 5332 5329 5326 5323 5321 5319 5317 5315 5313 5312 5310 5309 5308 5307 5305 5304 5303 5303 5302 5301
5573 5567 5562 5557 5551 5546 5540 5535 5529 5524 5518 5513 5508 5503 5498 5493 5488 5483 5478 5473 5469 5465 5460 5455 5451 5446 5441 5436 5431 5426 5421 5416 5411 5406 5401 5396 5391 5386 5381 5376 5372 5367 5362 5357 5353 5348 5343 5339 5335 5332 5328 5326 5323 5321 5318 5316 5314 5312 5310 5309 5307 5306 5305 5303 5302 5301 5301 5300 5299
5572 5566 5561 5556 5550 5545 5539 5534 5528 5523 5517 5512 5507 5502 5497 5492 5487 5482 5478 5473 5469 5464 5459 5455 5451 5446 5441 5436 5431 5426 5421 5416 5411 5406 5401 5396 5391 5386 5381 5377 5372 5367 5363 5358 5353 5349 5344 5340 5336 5332 5329 5326 5323 5320 5318 5315 5313 5311 5309 5307 5306 5304 5303 5301 5300 5299 5298 5298 5297
5571 5565 5560 5555 5549 5544 5539 5533 5527 5522 5516 5511 5506 5501 5496 5491 5487 5482 5477 5473 5468 5464 5459 5455 5450 5446 5441 5436 5431 5426 5421 5416 5411 5406 5401 5396 5391 5386 5382 5377 5372 5368 5363 5359 5354 5350 5346 5341 5337 5333 5329 5326 5323 5320 5318 5315 5312 5310 5308 5306 5304 5302 5301 5299 5298 5297 5296 5296 5295
5570 5564 5559 5554 5549 5543 5538 5532 5527 5521 5516 5511 5506 5501 5496 5491 5486 5481 5477 5472 5468 5463 5459 5455 5450 5445 5441 5436 5431 5426 5421 5416 5411 5406 5401 5397 5392 5387 5382 5377 5373 5368 5363 5359 5355 5351 5347 5343 5338 5334 5330 5327 5323 5320 5317 5314 5312 5309 5307 5305 5303 5301 5299 5298 5296 5295 5294 5294 5293
5569 5563 5558 5553 5548 5543 5537 5532 5526 5521 5515 5510 5505 5500 5495 5491 5486 5481 5476 5472 5467 5463 5459 5454 5450 5445 5440 5436 5431 5426 5421 5416 5412 5407 5402 5397 5392 5387 5382 5378 5373 5368 5364 5359 5355 5351 5347 5343 5339 5335 5331 5327 5324 5320 5317 5314 5311 5308 5306 5303 5301 5299 5298 5296 5295 5293 5293 5292 5291
5568 5563 5558 5553 5547 5542 5537 5531 5526 5520 5515 5510 5505 5500 5495 5490 5485 5481 5476 5471 5467 5462 5458 5453 5449 5445 5440 5435 5430 5425 5421 5416 5411 5407 5402 5397 5392 5388 5383 5378 5373 5369 5364 5360 5355 5351 5347 5344 5340 5335 5331 5328 5324 5320 5317 5314 5311 5308 5305 5303 5300 5298 5296 5295 5293 5292 5291 5290 5289
5567 5562 5557 5552 5547 5541 5536 5530 5525 5520 5514 5509 5504 5499 5494 5490 5485 5480 5476 5471 5467 5462 5458 5453 5449 5444 5440 5435 5430 5426 5421 5416 5411 5407 5402 5398 5393 5388 5383 5379 5374 5369 5365 5360 5356 5351 5347 5343 5340 5335 5331 5328 5324 5320 5317 5313 5310 5308 5305 5302 5300 5297 5295 5293 5292 5290 5289 5288 5288
5566 5561 5556 5551 5546 5541 5535 5530 5524 5519 5514 5509 5504 5499 5494 5489 5485 5480 5475 5471 5466 5462 5457 5453 5448 5444 5440 5435 5431 5426 5421 5416 5412 5407 5403 5398 5393 5388 5384 5379 5374 5370 5365 5360 5356 5351 5347 5343 5339 5335 5331 5327 5323 5320 5316 5313 5310 5307 5304 5302 5299 5297 5294 5292 5290 5289 5288 5287 5286
5566 5560 5555 5550 5545 5540 5535 5529 5524 5518 5513 5508 5503 5498 5494 5489 5484 5480 5475 5471 5466 5461 5457 5452 5448 5444 5439 5435 5431 5426 5421 5417 5412 5407 5403 5398 5393 5388 5384 5379 5375 5370 5366 5361 5356 5351 5347 5342 5338 5334 5331 5326 5323 5319 5316 5313 5310 5307 5304 5301 5298 5296 5293 5291 5289 5288 5287 5286 5285
5565 5560 5555 5550 5544 5539 5534 5528 5523 5518 5513 5508 5503 5498 5493 5489 5484 5480 5475 5470 5466 5461 5457 5452 5448 5443 5439 5435 5431 5426 5422 5418 5413 5408 5403 5398 5394 5389 5384 5380 5375 5371 5366 5361 5357 5352 5347 5342 5337 5333 5330 5326 5323 5319 5316 5313 5309 5306 5303 5300 5298 5295 5293 5291 5289 5287 5286 5285 5284
5564 5559 5554 5549 5544 5539 5533 5528 5523 5518 5513 5508 5503 5498 5493 5488 5484 5479 5475 5470 5466 5461 5457 5453 5448 5443 5439 5435 5431 5427 5423 5418 5414 5409 5404 5399 5394 5390 5385 5381 5376 5371 5367 5362 5357 5353 5348 5342 5338 5333 5330 5326 5322 5319 5316 5313 5309 5306 5303 5300 5297 5295 5293 5290 5288 5286 5285 5284 5283
5564 5559 5554 5549 5544 5538 5533 5528 5523 5518 5513 5508 5502 5498 5493 5488 5484 5479 5475 5471 5466 5462 5457 5453 5448 5444 5440 5436 5432 5427 5423 5419 5414 5409 5405 5400 5395 5391 5386 5382 5377 5372 5368 5363 5358 5354 5349 5344 5339 5335 5331 5326 5322 5319 5316 5312 5309 5305 5303 5300 5297 5294 5292 5290 5288 5286 5284 5283 5282
5563 5558 5553 5548 5543 5538 5533 5528 5523 5518 5512 5507 5502 5498 5493 5488 5484 5480 5475 5471 5466 5462 5457 5453 5449 5445 5441 5436 5432 5428 5423 5419 5415 5410 5405 5401 5396 5392 5387 5383 5378 5373 5369 5364 5360 5355 5350 5345 5341 5336 5332 5327 5323 5319 5316 5312 5308 5305 5302 5300 5297 5294 5292 5290 5288 5286 5284 5283 5282
5563 5558 5553 5548 5543 5538 5533 5528 5523 5518 5513 5508 5503 5498 5493 5488 5484 5480 5475 5471 5466 5462 5458 5453 5449 5445 5441 5436 5432 5428 5424 5419 5415 5411 5406 5401 5397 5392 5388 5383 5379 5374 5370 5365 5361 5356 5352 5347 5342 5337 5333 5328 5324 5320 5316 5312 5308 5305 5303 5300 5298 5295 5292 5290 5288 5286 5284 5283 5281
5563 5558 5553 5548 5543 5538 5533 5528 5523 5518 5513 5508 5503 5498 5493 5488 5484 5479 5475 5471 5467 5463 5459 5454 5450 5445 5441 5437 5433 5428 5424 5420 5416 5411 5407 5402 5397 5393 5388 5384 5379 5375 5371 5367 5362 5358 5353 5348 5343 5338 5333 5329 5325 5321 5316 5313 5309 5306 5303 5301 5298 5296 5293 5290 5288 5286 5284 5283 5281
5562 5558 5553 5548 5543 5538 5533 5528 5523 5518 5513 5508 5503 5498 5493 5488 5484 5480 5476 5472 5468 5463 5459 5454 5450 5445 5441 5437 5433 5428 5424 5420 5416 5412 5407 5403 5398 5393 5389 5385 5380 5376 5372 5367 5363 5358 5354 5349 5344 5339 5334 5331 5326 5322 5317 5313 5310 5307 5304 5302 5299 5297 5294 5291 5288 5286 5284 5283 5282
5562 5557 5553 5548 5543 5538 5533 5528 5523 5518 5513 5508 5503 5498 5493 5489 5485 5481 5477 5473 5468 5463 5459 5454 5450 5445 5441 5437 5433 5428 5424 5420 5416 5412 5408 5403 5399 5394 5390 5386 5381 5377 5372 5368 5363 5359 5354 5350 5345 5340 5335 5331 5327 5323 5319 5315 5312 5308 5306 5303 5301 5298 5294 5292 5289 5287 5285 5283 5282
5562 5557 5552 5548 5543 5538 5533 5528 5523 5518 5513 5508 5503 5498 5494 5489 5485 5481 5477 5473 5468 5464 5460 5455 5451 5447 5442 5438 5433 5429 5425 5421 5417 5413 5409 5404 5400 5395 5391 5387 5382 5378 5373 5368 5364 5359 5355 5351 5346 5341 5337 5332 5329 5325 5321 5317 5313 5310 5307 5304 5301 5298 5295 5292 5290 5288 5286 5284 5283
5561 5557 5552 5547 5543 5538 5533 5528 5523 5518 5513 5508 5503 5499 5494 5490 5485 5481 5477 5473 5469 5465 5461 5457 5453 5448 5444 5440 5435 5431 5427 5423 5418 5414 5410 5405 5401 5396 5392 5387 5383 5378 5373 5369 5364 5360 5356 5352 5347 5343 5338 5334 5330 5326 5323 5319 5315 5312 5308 5305 5302 5298 5296 5293 5291 5289 5287 5286 5284
5561 5556 5552 5547 5542 5538 5533 5528 5523 5518 5513 5508 5503 5499 5494 5490 5486 5482 5478 5474 5470 5466 5462 5458 5454 5450 5446 5441 5437 5433 5428 5424 5419 5415 5411 5406 5402 5397 5393 5388 5383 5379 5374 5370 5366 5361 5357 5353 5349 5345 5340 5336 5332 5328 5324 5321 5317 5313 5309 5305 5303 5300 5297 5295 5293 5291 5289 5287 5285
5561 5556 5551 5547 5542 5537 5533 5528 5523 5518 5513 5508 5504 5499 5494 5490 5487 5483 5478 5474 5470 5467 5463 5459 5455 5451 5446 5442 5438 5433 5429 5425 5421 5416 5412 5407 5403 5398 5393 5389 5384 5380 5375 5371 5367 5363 5359 5355 5351 5347 5342 5338 5333 5329 5326 5322 5318 5314 5310 5307 5304 5301 5299 5297 5294 5293 5290 5288 5287
5560 5556 5551 5547 5542 5537 5533 5528 5523 5518 5513 5509 5504 5499 5495 5491 5487 5483 5478 5474 5471 5467 5463 5460 5456 5452 5448 5443 5439 5435 5431 5427 5422 5418 5413 5408 5404 5399 5395 5390 5386 5381 5377 5373 5369 5365 5361 5357 5353 5348 5344 5339 5335 5331 5327 5323 5319 5315 5311 5308 5306 5303 5301 5298 5296 5294 5292 5290 5289
5560 5555 5551 5546 5542 5537 5533 5528 5523 5518 5513 5509 5504 5500 5496 5491 5487 5483 5479 5475 5472 5468 5464 5461 5457 5453 5449 5445 5441 5437 5432 5428 5424 5419 5414 5410 5405 5401 5396 5392 5387 5383 5379 5375 5371 5367 5363 5359 5355 5350 5345 5341 5336 5331 5327 5324 5320 5317 5313 5310 5307 5305 5303 5301 5298 5296 5294 5293 5291
5560 5555 5551 5546 5542 5537 5533 5528 5523 5518 5513 5509 5504 5500 5495 5491 5487 5483 5480 5476 5473 5469 5465 5462 5458 5454 5450 5446 5442 5438 5433 5429 5425 5420 5416 5411 5407 5402 5398 5393 5389 5385 5381 5377 5373 5369 5365 5361 5357 5352 5347 5342 5337 5333 5328 5325 5322 5319 5315 5312 5309 5307 5305 5303 5300 5298 5296 5294 5293
5559 5555 5551 5546 5542 5537 5533 5528 5523 5518 5514 5509 5504 5500 5495 5491 5488 5483 5480 5476 5473 5469 5466 5462 5459 5455 5451 5447 5443 5439 5435 5430 5426 5421 5417 5412 5408 5403 5399 5395 5391 5387 5383 5379 5375 5371 5367 5363 5358 5354 5349 5344 5339 5334 5330 5327 5324 5321 5318 5314 5311 5309 5307 5304 5302 5300 5298 5297 5295
5559 5555 5551 5546 5542 5537 5532 5528 5523 5519 5514 5509 5505 5500 5496 5492 5488 5483 5479 5476 5472 5469 5465 5462 5458 5455 5452 5448 5444 5440 5436 5431 5427 5422 5417 5413 5409 5405 5400 5396 5393 5388 5385 5381 5377 5373 5369 5364 5360 5355 5351 5346 5341 5336 5332 5328 5326 5323 5319 5316 5313 5311 5309 5306 5304 5302 5300 5299 5297
5559 5555 5550 5546 5542 5537 5533 5528 5523 5518 5514 5509 5505 5501 5496 5492 5487 5483 5479 5476 5472 5468 5465 5462 5458 5455 5452 5448 5444 5440 5436 5432 5427 5422 5418 5413 5409 5406 5402 5398 5394 5390 5386 5382 5378 5374 5370 5366 5362 5357 5353 5348 5343 5339 5334 5331 5327 5324 5321 5318 5315 5313 5311 5308 5306 5304 5303 5301 5299